EN

Hourly Weather Trudivs'ke

Today, 16 May, Sunday

Time Temperature Precipitation Wind Pressure Humidity
00:00 +16°C° 0 mm 2 mps 744 mmHg 65%
01:00 +16°C° 0 mm 2 mps 744 mmHg 68%
02:00 +16°C° 0 mm 2 mps 744 mmHg 70%
03:00 +16°C° 0 mm 2 mps 744 mmHg 73%
04:00 +16°C° 0 mm 3 mps 744 mmHg 73%
05:00 +16°C° 0 mm 3 mps 743 mmHg 73%
06:00 +16°C° 0 mm 3 mps 743 mmHg 73%
07:00 +19°C° 0 mm 3 mps 743 mmHg 67%
08:00 +21°C° 0 mm 4 mps 743 mmHg 62%
09:00 +23°C° 0 mm 4 mps 743 mmHg 56%
10:00 +26°C° 0 mm 4 mps 743 mmHg 54%
11:00 +27°C° 0 mm 5 mps 742 mmHg 52%
12:00 +29°C° 0 mm 5 mps 742 mmHg 50%
13:00 +29°C° 0 mm 5 mps 742 mmHg 49%
14:00 +30°C° 0 mm 5 mps 741 mmHg 48%
15:00 +30°C° 0 mm 6 mps 741 mmHg 48%
16:00 +29°C° 0 mm 6 mps 740 mmHg 50%
17:00 +27°C° 0 mm 6 mps 740 mmHg 52%
18:00 +26°C° 0 mm 6 mps 740 mmHg 54%
19:00 +23°C° 0 mm 5 mps 740 mmHg 60%
20:00 +21°C° 0 mm 4 mps 739 mmHg 65%
21:00 +20°C° 0 mm 4 mps 739 mmHg 71%
22:00 +19°C° 0 mm 4 mps 739 mmHg 71%
23:00 +19°C° 0 mm 4 mps 738 mmHg 70%

Tomorrow, 17 May, Monday

Time Temperature Precipitation Wind Pressure Humidity
00:00 +18°C° 0 mm 4 mps 738 mmHg 70%
01:00 +18°C° 0 mm 4 mps 738 mmHg 67%
02:00 +17°C° 0 mm 4 mps 738 mmHg 65%
03:00 +17°C° 0 mm 4 mps 738 mmHg 62%
04:00 +17°C° 0 mm 4 mps 738 mmHg 64%
05:00 +15°C° 0 mm 5 mps 738 mmHg 66%
06:00 +15°C° 0 mm 5 mps 738 mmHg 68%
07:00 +17°C° 0 mm 6 mps 738 mmHg 65%
08:00 +19°C° 0 mm 6 mps 738 mmHg 62%
09:00 +21°C° 0 mm 7 mps 738 mmHg 60%
10:00 +22°C° 0 mm 6 mps 739 mmHg 60%
11:00 +23°C° 0 mm 6 mps 739 mmHg 59%
12:00 +24°C° 0 mm 6 mps 739 mmHg 59%
13:00 +25°C° 0 mm 5 mps 739 mmHg 59%
14:00 +23°C° 0 mm 5 mps 739 mmHg 59%
15:00 +23°C° 0 mm 5 mps 740 mmHg 59%
16:00 +22°C° 0 mm 5 mps 740 mmHg 64%
17:00 +21°C° 0 mm 5 mps 740 mmHg 69%
18:00 +20°C° 0 mm 5 mps 740 mmHg 74%
19:00 +19°C° 0 mm 4 mps 740 mmHg 80%
20:00 +18°C° 0 mm 4 mps 741 mmHg 86%
21:00 +16°C° 0 mm 3 mps 741 mmHg 92%
22:00 +16°C° 0 mm 3 mps 741 mmHg 92%
23:00 +16°C° 0 mm 3 mps 741 mmHg 93%

Day after tomorrow, 18 May, Tuesday

Time Temperature Precipitation Wind Pressure Humidity
00:00 +14°C° 0 mm 3 mps 741 mmHg 94%
01:00 +14°C° 0 mm 3 mps 741 mmHg 94%
02:00 +14°C° 0 mm 3 mps 741 mmHg 94%
03:00 +14°C° 0 mm 3 mps 741 mmHg 94%
04:00 +14°C° 0 mm 3 mps 741 mmHg 93%
05:00 +14°C° 0 mm 3 mps 741 mmHg 93%
06:00 +15°C° 0 mm 2 mps 742 mmHg 93%
07:00 +16°C° 0 mm 3 mps 742 mmHg 87%
08:00 +17°C° 0 mm 4 mps 742 mmHg 81%
09:00 +19°C° 0 mm 5 mps 742 mmHg 75%
10:00 +17°C° 0.1 mm 5 mps 742 mmHg 75%
11:00 +17°C° 0.1 mm 5 mps 742 mmHg 76%
12:00 +17°C° 0.1 mm 5 mps 742 mmHg 76%
13:00 +20°C° 0 mm 6 mps 742 mmHg 70%
14:00 +21°C° 0 mm 7 mps 742 mmHg 63%
15:00 +22°C° 0 mm 7 mps 742 mmHg 56%
16:00 +21°C° 0 mm 7 mps 742 mmHg 61%
17:00 +20°C° 0 mm 7 mps 742 mmHg 66%
18:00 +19°C° 0 mm 6 mps 742 mmHg 72%
19:00 +17°C° 0 mm 6 mps 742 mmHg 77%
20:00 +16°C° 0 mm 6 mps 742 mmHg 83%
21:00 +15°C° 0 mm 5 mps 742 mmHg 89%
22:00 +14°C° 0.1 mm 5 mps 742 mmHg 92%
23:00 +14°C° 0.1 mm 4 mps 743 mmHg 94%

19 May, Wednesday

Time Temperature Precipitation Wind Pressure Humidity
00:00 +14°C° 0.1 mm 4 mps 743 mmHg 97%
01:00 +14°C° 0 mm 4 mps 743 mmHg 97%
02:00 +14°C° 0 mm 3 mps 743 mmHg 96%
03:00 +13°C° 0 mm 3 mps 743 mmHg 96%
04:00 +13°C° 0 mm 3 mps 743 mmHg 95%
05:00 +14°C° 0 mm 2 mps 743 mmHg 93%
06:00 +14°C° 0 mm 2 mps 743 mmHg 92%
07:00 +15°C° 0 mm 2 mps 744 mmHg 84%
08:00 +17°C° 0 mm 2 mps 744 mmHg 75%
09:00 +19°C° 0 mm 2 mps 744 mmHg 66%
10:00 +19°C° 0 mm 2 mps 744 mmHg 63%
11:00 +19°C° 0 mm 2 mps 744 mmHg 60%
12:00 +20°C° 0 mm 2 mps 744 mmHg 57%
13:00 +19°C° 0.4 mm 2 mps 744 mmHg 65%
14:00 +18°C° 0.4 mm 2 mps 744 mmHg 73%
15:00 +16°C° 0.4 mm 2 mps 744 mmHg 81%
16:00 +16°C° 0.3 mm 2 mps 744 mmHg 83%
17:00 +16°C° 0.3 mm 1 mps 744 mmHg 84%
18:00 +15°C° 0.3 mm 1 mps 743 mmHg 86%
19:00 +15°C° 1.7 mm 2 mps 744 mmHg 89%
20:00 +14°C° 1.7 mm 2 mps 744 mmHg 92%
21:00 +14°C° 1.7 mm 2 mps 744 mmHg 95%
22:00 +13°C° 0.9 mm 2 mps 744 mmHg 95%
23:00 +12°C° 0.9 mm 3 mps 744 mmHg 95%

20 May, Thursday

Time Temperature Precipitation Wind Pressure Humidity
00:00 +11°C° 0.9 mm 3 mps 744 mmHg 95%
01:00 +11°C° 0 mm 3 mps 744 mmHg 95%
02:00 +11°C° 0 mm 3 mps 744 mmHg 94%
03:00 +10°C° 0 mm 3 mps 744 mmHg 94%
04:00 +10°C° 0 mm 3 mps 744 mmHg 93%
05:00 +11°C° 0 mm 3 mps 745 mmHg 92%
06:00 +11°C° 0 mm 3 mps 745 mmHg 91%
07:00 +13°C° 0 mm 3 mps 745 mmHg 83%
08:00 +15°C° 0 mm 4 mps 745 mmHg 75%
09:00 +17°C° 0 mm 5 mps 745 mmHg 67%
10:00 +19°C° 0 mm 5 mps 745 mmHg 62%
11:00 +20°C° 0 mm 5 mps 745 mmHg 58%
12:00 +21°C° 0 mm 6 mps 745 mmHg 53%
13:00 +22°C° 0 mm 5 mps 744 mmHg 53%
14:00 +23°C° 0 mm 5 mps 744 mmHg 52%
15:00 +23°C° 0 mm 5 mps 744 mmHg 51%
16:00 +23°C° 0 mm 4 mps 744 mmHg 56%
17:00 +22°C° 0 mm 4 mps 744 mmHg 60%
18:00 +22°C° 0 mm 4 mps 744 mmHg 65%
19:00 +21°C° 0 mm 4 mps 744 mmHg 71%
20:00 +19°C° 0 mm 3 mps 743 mmHg 77%
21:00 +18°C° 0 mm 3 mps 743 mmHg 83%
22:00 +18°C° 0 mm 3 mps 743 mmHg 85%
23:00 +17°C° 0 mm 4 mps 743 mmHg 87%

21 May, Friday

Time Temperature Precipitation Wind Pressure Humidity
00:00 +17°C° 0 mm 4 mps 743 mmHg 89%
01:00 +16°C° 0.3 mm 5 mps 742 mmHg 90%
02:00 +16°C° 0.3 mm 5 mps 742 mmHg 91%
03:00 +16°C° 0.3 mm 5 mps 742 mmHg 92%
04:00 +16°C° 0.1 mm 5 mps 742 mmHg 92%
05:00 +17°C° 0.1 mm 4 mps 742 mmHg 92%
06:00 +17°C° 0.1 mm 4 mps 741 mmHg 92%
07:00 +17°C° 0.4 mm 5 mps 741 mmHg 89%
08:00 +19°C° 0.4 mm 5 mps 741 mmHg 86%
09:00 +20°C° 0.4 mm 6 mps 741 mmHg 83%
10:00 +20°C° 1.2 mm 5 mps 741 mmHg 81%
11:00 +21°C° 1.2 mm 5 mps 741 mmHg 79%
12:00 +21°C° 1.2 mm 5 mps 741 mmHg 77%
13:00 +21°C° 0.3 mm 5 mps 741 mmHg 78%
14:00 +21°C° 0.3 mm 5 mps 741 mmHg 78%
15:00 +21°C° 0.3 mm 5 mps 741 mmHg 79%
16:00 +21°C° 0.1 mm 5 mps 742 mmHg 80%
17:00 +21°C° 0.1 mm 4 mps 742 mmHg 82%
18:00 +20°C° 0.1 mm 4 mps 742 mmHg 84%
19:00 +20°C° 0.1 mm 5 mps 742 mmHg 86%
20:00 +19°C° 0.1 mm 5 mps 742 mmHg 89%
21:00 +17°C° 0.1 mm 6 mps 743 mmHg 92%
22:00 +17°C° 0 mm 5 mps 743 mmHg 92%
23:00 +16°C° 0 mm 5 mps 743 mmHg 93%
Show more

We Need Your Consent

Meteoprog and our Service Providers may store and access personal data such as cookies, device identifiers or other similar technologies on your device and process such data to personalise content and ads, as well as provide social media features and to analyse the traffic.

  • Store and/or access information on your device

    Cookies, device identifiers or other information can be stored or accessed on your device for the purposes indicated above.

  • Personalised ads and content, ad and content measurement, audience insights, and products development

    Ads and content can be personalised based on a profile. More data can be added to better personalise ads and content. Ad and content performance can be measured. Insights about the audience who saw the ads and content can be derived. Such data can be used to develop or improve user’s experience, systems and software.

By clicking ‘I Agree’ you will allow the use of indicated cookies, device identifiers, web beacons or other similar technologies. Your settings can be changed in the browser on your device.

For certain purposes, legitimate interests may be relied on, rather than consent. You can read more about this in our Privacy and Cookie Policy.